EW4650 Weather Reports


Display with metric or nautical units.
time (UTC)temp
F
wind
direction
speed
MPH
gust
MPH
rain 1hr
in
rain 24hr
in
rain mn
in
humidity
%
barometer
mb
20260504050511 63 165 10.0 19.0 0.00 0.00 0.00 72 1015.7
20260504050008 64 186 11.0 19.0 0.00 0.00 0.00 72 1015.8
20260504045506 64 153 12.0 20.0 0.00 0.00 0.00 71 1015.9
20260504045006 64 167 9.0 20.0 0.00 0.00 0.00 70 1016.0
20260504044512 64 200 9.0 17.0 0.00 0.00 0.00 70 1016.0
20260504044006 64 187 8.0 17.0 0.00 0.00 0.00 69 1015.9
20260504043506 64 163 8.0 17.0 0.00 0.00 0.00 69 1015.8
20260504043011 64 180 10.0 15.0 0.00 0.00 0.00 68 1016.0
20260504042507 64 188 8.0 19.0 0.00 0.00 0.00 68 1015.9
20260504042005 64 157 9.0 19.0 0.00 0.00 0.00 67 1015.7
20260504041516 63 169 10.0 15.0 0.00 0.00 0.00 67 1015.8
20260504041005 63 194 7.0 12.0 0.00 0.00 0.00 65 1015.9
20260504040507 63 177 5.0 9.0 0.00 0.00 0.00 65 1015.9
20260504040004 63 190 5.0 9.0 0.00 0.00 0.00 64 1015.8
20260504035506 63 190 4.0 8.0 0.00 0.00 0.00 64 1015.7
20260504035004 63 176 5.0 8.0 0.00 0.00 0.00 63 1015.8
20260504034503 64 165 5.0 10.0 0.00 0.00 0.00 63 1015.9
20260504034003 64 159 5.0 8.0 0.00 0.00 0.00 62 1016.0
20260504033503 64 173 5.0 10.0 0.00 0.00 0.00 62 1015.9
20260504033003 64 166 5.0 10.0 0.00 0.00 0.00 61 1016.0
20260504032503 64 192 5.0 9.0 0.00 0.00 0.00 61 1016.0
20260504032003 64 167 5.0 11.0 0.00 0.00 0.00 61 1016.0
20260504031503 65 168 4.0 11.0 0.00 0.00 0.00 61 1016.0
20260504031004 65 146 4.0 8.0 0.00 0.00 0.00 61 1016.0
20260504030502 65 148 5.0 9.0 0.00 0.00 0.00 62 1016.2
20260504030002 65 186 5.0 10.0 0.00 0.00 0.00 61 1016.2
20260504025501 65 173 4.0 10.0 0.00 0.00 0.00 62 1016.1
20260504025001 65 158 5.0 10.0 0.00 0.00 0.00 61 1016.1
20260504024503 64 179 4.0 10.0 0.00 0.00 0.00 62 1016.0
20260504024001 64 152 4.0 8.0 0.00 0.00 0.00 62 1015.9
20260504023501 64 177 5.0 9.0 0.00 0.00 0.00 61 1015.8
20260504023001 64 166 4.0 8.0 0.00 0.00 0.00 62 1015.9
20260504022601 64 169 4.0 8.0 0.00 0.00 0.00 63 1015.9
20260504022101 64 153 4.0 8.0 0.00 0.00 0.00 62 1016.0
20260504021601 64 161 3.0 7.0 0.00 0.00 0.00 62 1016.1
20260504021104 64 168 4.0 7.0 0.00 0.00 0.00 62 1016.1
20260504020600 65 130 3.0 8.0 0.00 0.00 0.00 62 1016.1
20260504020132 65 159 4.0 8.0 0.00 0.00 0.00 62 1016.2
20260504015559 65 163 4.0 8.0 0.00 0.00 0.00 62 1016.0
20260504015200 65 148 3.0 7.0 0.00 0.00 0.00 61 1016.2
20260504014602 65 153 3.0 7.0 0.00 0.00 0.00 61 1016.1
20260504014058 65 144 3.0 5.0 0.00 0.00 0.00 61 1016.0
20260504013600 66 162 4.0 6.0 0.00 0.00 0.00 60 1015.9
20260504013126 66 150 3.0 6.0 0.00 0.00 0.00 59 1015.9
20260504012558 66 163 3.0 6.0 0.00 0.00 0.00 58 1016.0
20260504012058 67 165 4.0 7.0 0.00 0.00 0.00 57 1015.9
20260504011558 67 196 3.0 6.0 0.00 0.00 0.00 57 1015.8
20260504011059 67 184 4.0 9.0 0.00 0.00 0.00 56 1015.7
20260504010557 68 203 5.0 10.0 0.00 0.00 0.00 56 1015.6
20260504010101 68 177 5.0 10.0 0.00 0.00 0.00 55 1015.7
20260504005557 69 194 4.0 10.0 0.00 0.00 0.00 55 1015.7
20260504005057 69 200 5.0 10.0 0.00 0.00 0.00 55 1015.7
20260504004557 69 184 5.0 10.0 0.00 0.00 0.00 53 1015.7
20260504004056 69 211 6.0 14.0 0.00 0.00 0.00 53 1015.7
20260504003555 70 213 7.0 14.0 0.00 0.00 0.00 53 1015.8
20260504003055 70 187 5.0 13.0 0.00 0.00 0.00 52 1015.8
20260504002656 70 198 6.0 13.0 0.00 0.00 0.00 52 1015.8
20260504002055 71 172 7.0 13.0 0.00 0.00 0.00 52 1016.0
20260504001655 71 180 7.0 16.0 0.00 0.00 0.00 51 1015.9
20260504001054 72 184 8.0 16.0 0.00 0.00 0.00 50 1015.9
20260504000553 72 196 7.0 13.0 0.00 0.00 0.00 50 1015.9
20260504000055 72 184 8.0 17.0 0.00 0.00 0.00 52 1016.0
20260503235552 72 200 8.0 18.0 0.00 0.00 0.00 52 1016.0
20260503235052 72 202 7.0 18.0 0.00 0.00 0.00 52 1015.9
20260503234552 72 161 8.0 15.0 0.00 0.00 0.00 50 1016.0
20260503234052 73 216 9.0 16.0 0.00 0.00 0.00 50 1016.0
20260503233552 73 173 11.0 16.0 0.00 0.00 0.00 50 1016.1
20260503233051 73 175 7.0 15.0 0.00 0.00 0.00 50 1016.1
20260503232551 73 179 10.0 17.0 0.00 0.00 0.00 51 1016.0
20260503232050 73 180 5.0 15.0 0.00 0.00 0.00 51 1016.0
20260503231550 73 173 10.0 16.0 0.00 0.00 0.00 50 1016.1
20260503231051 74 182 9.0 16.0 0.00 0.00 0.00 50 1016.1
20260503230550 74 192 6.0 16.0 0.00 0.00 0.00 50 1016.2
20260503230049 74 132 10.0 16.0 0.00 0.00 0.00 50 1016.2
20260503225547 73 189 11.0 16.0 0.00 0.00 0.00 49 1016.3
20260503225047 74 192 7.0 15.0 0.00 0.00 0.00 49 1016.3
20260503224555 74 196 7.0 15.0 0.00 0.00 0.00 49 1016.4
20260503224047 74 156 10.0 15.0 0.00 0.00 0.00 48 1016.4
20260503223547 75 200 10.0 18.0 0.00 0.00 0.00 48 1016.4
20260503223046 75 184 10.0 17.0 0.00 0.00 0.00 48 1016.5
20260503222546 75 214 10.0 17.0 0.00 0.00 0.00 50 1016.3
20260503222049 75 216 9.0 18.0 0.00 0.00 0.00 48 1016.3
20260503221558 75 163 13.0 18.0 0.00 0.00 0.00 48 1016.4
20260503221049 75 142 8.0 15.0 0.00 0.00 0.00 50 1016.5
20260503220544 75 176 10.0 17.0 0.00 0.00 0.00 48 1016.6
20260503220044 75 156 9.0 15.0 0.00 0.00 0.00 49 1016.7
20260503215543 75 160 9.0 16.0 0.00 0.00 0.00 48 1016.6
20260503215041 74 161 9.0 16.0 0.00 0.00 0.00 49 1016.8
20260503214542 75 126 11.0 16.0 0.00 0.00 0.00 49 1016.9
20260503214040 75 187 10.0 16.0 0.00 0.00 0.00 48 1017.1
20260503213541 75 154 6.0 20.0 0.00 0.00 0.00 50 1017.2
20260503213044 74 165 10.0 20.0 0.00 0.00 0.00 50 1017.3
20260503212537 74 121 9.0 18.0 0.00 0.00 0.00 50 1017.4
20260503212035 75 174 10.0 18.0 0.00 0.00 0.00 49 1017.5
20260503211536 75 121 9.0 18.0 0.00 0.00 0.00 49 1017.5
20260503211034 75 148 11.0 18.0 0.00 0.00 0.00 49 1017.7
20260503210534 75 171 10.0 16.0 0.00 0.00 0.00 48 1017.8
20260503210033 75 178 8.0 15.0 0.00 0.00 0.00 48 1017.9
20260503205532 75 112 9.0 17.0 0.00 0.00 0.00 46 1018.0
20260503205031 75 180 8.0 17.0 0.00 0.00 0.00 49 1018.2
20260503204530 75 146 7.0 15.0 0.00 0.00 0.00 49 1018.3
20260503204029 75 174 10.0 15.0 0.00 0.00 0.00 47 1018.4
20260503203533 75 215 7.0 19.0 0.00 0.00 0.00 46 1018.3
20260503203034 74 208 8.0 19.0 0.00 0.00 0.00 46 1018.5
20260503202529 74 157 10.0 16.0 0.00 0.00 0.00 47 1018.6
20260503202027 75 214 9.0 16.0 0.00 0.00 0.00 45 1018.6
20260503201526 74 186 8.0 14.0 0.00 0.00 0.00 46 1018.8
20260503201026 75 203 7.0 14.0 0.00 0.00 0.00 46 1019.0
20260503200526 75 173 6.0 14.0 0.00 0.00 0.00 44 1019.0
20260503200027 75 176 9.0 16.0 0.00 0.00 0.00 46 1019.0
20260503195523 75 232 5.0 16.0 0.00 0.00 0.00 46 1019.0
20260503195023 75 225 11.0 17.0 0.00 0.00 0.00 45 1019.1
20260503194522 75 111 7.0 14.0 0.00 0.00 0.00 47 1019.2
20260503194023 75 167 9.0 16.0 0.00 0.00 0.00 43 1019.2
20260503193520 75 192 11.0 16.0 0.00 0.00 0.00 42 1019.3
20260503193034 75 155 7.0 14.0 0.00 0.00 0.00 39 1019.6
20260503192519 75 188 6.0 14.0 0.00 0.00 0.00 46 1019.7
20260503192017 74 196 7.0 17.0 0.00 0.00 0.00 44 1019.7
20260503191533 74 132 6.0 17.0 0.00 0.00 0.00 43 1019.7
20260503191015 73 173 6.0 13.0 0.00 0.00 0.00 44 1019.8
20260503190514 73 137 7.0 13.0 0.00 0.00 0.00 41 1019.9
20260503190024 73 161 7.0 19.0 0.00 0.00 0.00 42 1020.1
20260503185613 73 173 7.0 19.0 0.00 0.00 0.00 42 1020.2
20260503185011 72 163 9.0 17.0 0.00 0.00 0.00 39 1020.1
20260503184510 73 130 10.0 16.0 0.00 0.00 0.00 42 1020.2
20260503184010 73 161 8.0 15.0 0.00 0.00 0.00 45 1020.4
20260503183512 72 152 8.0 18.0 0.00 0.00 0.00 43 1020.4
20260503183009 72 166 10.0 18.0 0.00 0.00 0.00 43 1020.5
20260503182509 72 175 9.0 17.0 0.00 0.00 0.00 50 1020.5
20260503182008 72 162 6.0 14.0 0.00 0.00 0.00 48 1020.5
20260503181507 73 147 6.0 12.0 0.00 0.00 0.00 48 1020.7
20260503181008 73 171 7.0 16.0 0.00 0.00 0.00 48 1020.9
20260503180506 72 158 4.0 14.0 0.00 0.00 0.00 48 1020.9
20260503180006 72 167 5.0 14.0 0.00 0.00 0.00 50 1020.9
20260503175504 72 196 9.0 14.0 0.00 0.00 0.00 53 1021.0
20260503175003 72 155 3.0 15.0 0.00 0.00 0.00 52 1021.0
20260503174502 71 178 8.0 14.0 0.00 0.00 0.00 51 1021.2
20260503174002 71 169 8.0 11.0 0.00 0.00 0.00 50 1021.3
20260503173600 71 173 3.0 16.0 0.00 0.00 0.00 51 1021.3
20260503173105 71 169 10.0 17.0 0.00 0.00 0.00 51 1021.5
20260503172559 70 164 6.0 10.0 0.00 0.00 0.00 51 1021.6
20260503172100 70 200 6.0 16.0 0.00 0.00 0.00 52 1021.7
20260503171558 70 156 10.0 16.0 0.00 0.00 0.00 53 1021.8
20260503171057 70 134 8.0 16.0 0.00 0.00 0.00 55 1021.9
20260503170557 70 164 6.0 15.0 0.00 0.00 0.00 54 1021.9
20260503170113 70 169 9.0 13.0 0.00 0.00 0.00 54 1021.9
20260503150535 63 197 8.0 14.0 0.00 0.00 0.00 67 1022.8
20260503131015 56 223 3.0 6.0 0.00 0.00 0.00 81 1021.7
20260503130514 55 205 3.0 7.0 0.00 0.00 0.00 81 1021.7
20260503110509 52 184 2.0 3.0 0.00 0.00 0.00 83 1021.1
20260503081552 55 149 5.0 8.0 0.00 0.00 0.00 77 1020.5
20260503081051 55 153 4.0 7.0 0.00 0.00 0.00 76 1020.4
20260503080552 55 181 3.0 5.0 0.00 0.00 0.00 76 1020.7
20260503072543 56 169 4.0 6.0 0.00 0.00 0.00 74 1021.5
20260503072046 56 170 4.0 7.0 0.00 0.00 0.00 74 1021.5
20260503071545 56 178 4.0 7.0 0.00 0.00 0.00 74 1021.6
20260503071041 56 167 5.0 7.0 0.00 0.00 0.00 74 1021.6
20260503070541 56 158 5.0 7.0 0.00 0.00 0.00 74 1021.6